Location: Kikino
(54.4440°N, 112.0940°W)
Time: 18:57:00
(UTC+00:00)

A-11 Canister half - Pass Details

Date: 27 May 2024
Orbit: 1525 x 1683 km, 47.3° (Epoch: 12 June)

Event Time Altitude Azimuth Distance (km) Brightness Sun altitude
Rises 07:17:54 0° 270° (W) 4,718 11.6 -14.1°
Reaches altitude 10° 07:21:01 10° 266° (W) 3,751 11.0 -14.2°
Maximum altitude 07:30:07 53° 193° (SSW) 1,895 9.1 -14.2°
Drops below altitude 10° 07:39:32 10° 121° (ESE) 3,868 10.8 -14.1°
Sets 07:42:48 0° 116° (ESE) 4,873 11.4 -14.1°
